Location: Burbank
(38.7788°N, 114.0429°W)
Time: 23:33:22
(UTC+00:00)

S-56A Canister/Altair - Pass Details

Date: 10 May 2026
Orbit: 633 x 2484 km, 38.9° (Epoch: 1 June)

Event Time Altitude Azimuth Distance (km) Brightness Sun altitude
Rises 09:15:10 0° 280° (W) 3,270 - -28.7°
Reaches altitude 10° 09:17:17 10° 279° (W) 2,483 - -28.5°
Exits shadow 09:22:24 68° 240° (WSW) 1,136 8.0 -28.0°
Maximum altitude 09:23:07 74° 195° (SSW) 1,134 8.0 -27.9°
Drops below altitude 10° 09:32:00 10° 112° (ESE) 3,691 11.1 -27.0°
Sets 09:35:47 0° 111° (ESE) 4,979 11.8 -26.6°
